UAL3936 KIAD-KORD

Flight info

Callsign UAL3936
Flight time 1h 32m
Altitude 30000
Route BUNZZ3 RAMAY Q72 HACKS J149 ROD WATSN4
Aircraft B38M/M-SDE1FGHILORVWXY/HB1

Departure

Time 2026-05-05 15:59
Airport Washington Dulles International Airport (KIAD)

Arrival

Time 2026-05-05 17:32
Airport Chicago O'Hare International Airport (KORD)
Time Latitude Longitude Altitude Speed Heading
2026-05-05 15:10 38.94592 -77.44643 308 ft 0 kts 186°
2026-05-05 15:20 38.94593 -77.44643 308 ft 0 kts 186°
2026-05-05 15:34 38.94594 -77.44643 308 ft 0 kts 185°
2026-05-05 15:45 38.94606 -77.44642 308 ft 3 kts 180°
2026-05-05 15:45 38.94623 -77.44641 306 ft 2 kts 182°
2026-05-05 15:45 38.94642 -77.44644 305 ft 3 kts 156°
2026-05-05 15:46 38.94655 -77.44657 305 ft 3 kts 115°
2026-05-05 15:46 38.94660 -77.44681 306 ft 3 kts 92°
2026-05-05 15:46 38.94660 -77.44699 306 ft 1 kts 90°
2026-05-05 15:46 38.94660 -77.44704 306 ft 0 kts 90°
2026-05-05 15:49 38.94660 -77.44697 306 ft 2 kts 90°
2026-05-05 15:49 38.94660 -77.44654 306 ft 6 kts 90°
2026-05-05 15:50 38.94659 -77.44586 306 ft 9 kts 91°
2026-05-05 15:50 38.94659 -77.44493 306 ft 12 kts 91°
2026-05-05 15:50 38.94658 -77.44375 304 ft 15 kts 90°
2026-05-05 15:50 38.94656 -77.44224 301 ft 19 kts 90°
2026-05-05 15:51 38.94656 -77.44059 296 ft 13 kts 90°
2026-05-05 15:51 38.94615 -77.43971 296 ft 11 kts 168°
2026-05-05 15:51 38.94542 -77.43970 299 ft 10 kts 185°
2026-05-05 15:51 38.94476 -77.43973 301 ft 9 kts 180°
2026-05-05 15:52 38.94420 -77.43973 302 ft 8 kts 180°
2026-05-05 15:52 38.94367 -77.43975 304 ft 8 kts 184°
2026-05-05 15:52 38.94310 -77.43974 302 ft 9 kts 180°
2026-05-05 15:52 38.94239 -77.43974 304 ft 11 kts 181°
2026-05-05 15:53 38.94155 -77.43978 302 ft 13 kts 188°
2026-05-05 15:53 38.94102 -77.44055 304 ft 12 kts 264°
2026-05-05 15:53 38.94104 -77.44165 305 ft 13 kts 270°
2026-05-05 15:53 38.94105 -77.44280 307 ft 13 kts 271°
2026-05-05 15:54 38.94106 -77.44405 307 ft 15 kts 271°
2026-05-05 15:54 38.94108 -77.44542 308 ft 16 kts 270°
2026-05-05 15:54 38.94108 -77.44689 312 ft 17 kts 270°
2026-05-05 15:54 38.94109 -77.44849 310 ft 19 kts 270°
2026-05-05 15:55 38.94110 -77.44967 309 ft 21 kts 270°
2026-05-05 15:55 38.94110 -77.45232 305 ft 24 kts 270°
2026-05-05 15:55 38.94119 -77.45441 306 ft 19 kts 299°
2026-05-05 15:55 38.94155 -77.45538 305 ft 9 kts 229°
2026-05-05 15:56 38.94102 -77.45549 306 ft 7 kts 195°
2026-05-05 15:56 38.94061 -77.45589 307 ft 10 kts 221°
2026-05-05 15:56 38.94009 -77.45618 307 ft 14 kts 188°
2026-05-05 15:56 38.93900 -77.45616 306 ft 17 kts 179°
2026-05-05 15:57 38.93765 -77.45617 301 ft 20 kts 180°
2026-05-05 15:57 38.93648 -77.45523 294 ft 21 kts 130°
2026-05-05 15:57 38.93520 -77.45525 287 ft 19 kts 200°
2026-05-05 15:57 38.93416 -77.45583 283 ft 12 kts 210°
2026-05-05 15:58 38.93384 -77.45670 285 ft 11 kts 286°
2026-05-05 15:58 38.93389 -77.45692 289 ft 0 kts 287°
2026-05-05 15:58 38.93398 -77.45720 285 ft 16 kts 293°
2026-05-05 15:59 38.93529 -77.46175 292 ft 90 kts 289°
2026-05-05 15:59 38.93827 -77.47189 299 ft 150 kts 288°
2026-05-05 15:59 38.94137 -77.48517 797 ft 157 kts 281°
2026-05-05 15:59 38.94705 -77.50364 1461 ft 175 kts 279°
2026-05-05 16:00 38.94853 -77.51381 1885 ft 169 kts 264°
2026-05-05 16:00 38.94648 -77.52857 2583 ft 173 kts 244°
2026-05-05 16:00 38.94185 -77.54333 3213 ft 190 kts 248°
2026-05-05 16:00 38.93700 -77.56022 3777 ft 213 kts 250°
2026-05-05 16:01 38.93176 -77.57896 4379 ft 233 kts 250°
2026-05-05 16:01 38.92615 -77.59920 4836 ft 246 kts 249°
2026-05-05 16:01 38.92035 -77.62015 4898 ft 251 kts 249°
2026-05-05 16:01 38.91451 -77.64130 4939 ft 252 kts 250°
2026-05-05 16:02 38.90869 -77.66254 4949 ft 252 kts 249°
2026-05-05 16:02 38.90284 -77.68379 4970 ft 252 kts 249°
2026-05-05 16:02 38.89699 -77.70506 4976 ft 254 kts 251°
2026-05-05 16:02 38.89346 -77.72682 4958 ft 253 kts 261°
2026-05-05 16:03 38.89125 -77.74931 4992 ft 253 kts 261°
2026-05-05 16:03 38.88895 -77.77171 4951 ft 252 kts 260°
2026-05-05 16:03 38.88663 -77.79409 4957 ft 254 kts 261°
2026-05-05 16:03 38.88428 -77.81652 5645 ft 250 kts 260°
2026-05-05 16:04 38.88196 -77.83852 6776 ft 249 kts 259°
2026-05-05 16:04 38.87962 -77.86061 7765 ft 250 kts 259°
2026-05-05 16:04 38.87728 -77.88277 8724 ft 252 kts 259°
2026-05-05 16:04 38.87491 -77.90511 9734 ft 252 kts 258°
2026-05-05 16:05 38.87432 -77.92765 10445 ft 269 kts 274°
2026-05-05 16:05 38.88043 -77.95158 10862 ft 295 kts 285°
2026-05-05 16:05 38.88800 -77.97686 11349 ft 311 kts 285°
2026-05-05 16:05 38.89592 -78.00309 12058 ft 317 kts 286°
2026-05-05 16:06 38.90396 -78.02957 12916 ft 321 kts 287°
2026-05-05 16:06 38.91215 -78.05649 13712 ft 325 kts 287°
2026-05-05 16:06 38.92044 -78.08368 14472 ft 329 kts 287°
2026-05-05 16:06 38.92881 -78.11121 15220 ft 332 kts 287°
2026-05-05 16:07 38.93724 -78.13894 15964 ft 336 kts 288°
2026-05-05 16:07 38.94567 -78.16671 16659 ft 340 kts 288°
2026-05-05 16:07 38.95428 -78.19511 17360 ft 343 kts 289°
2026-05-05 16:07 38.96072 -78.22463 18027 ft 344 kts 275°
2026-05-05 16:08 38.96283 -78.25542 18610 ft 348 kts 275°
2026-05-05 16:08 38.96509 -78.28654 19212 ft 351 kts 274°
2026-05-05 16:08 38.96725 -78.31798 19762 ft 355 kts 274°
2026-05-05 16:08 38.96935 -78.34973 20323 ft 358 kts 274°
2026-05-05 16:09 38.97143 -78.38176 20913 ft 361 kts 274°
2026-05-05 16:09 38.97348 -78.41364 21456 ft 364 kts 274°
2026-05-05 16:09 38.97556 -78.44624 22007 ft 368 kts 274°
2026-05-05 16:09 38.97765 -78.47919 22550 ft 371 kts 275°
2026-05-05 16:10 38.97974 -78.51241 23078 ft 375 kts 275°
2026-05-05 16:10 38.98185 -78.54594 23602 ft 378 kts 275°
2026-05-05 16:10 38.98397 -78.57974 24015 ft 381 kts 275°
2026-05-05 16:10 38.98608 -78.61373 24479 ft 382 kts 275°
2026-05-05 16:11 38.98820 -78.64785 24946 ft 384 kts 275°
2026-05-05 16:11 38.99453 -78.75096 26310 ft 390 kts 274°
2026-05-05 16:12 38.99665 -78.78580 26731 ft 392 kts 275°
2026-05-05 16:12 39.00088 -78.85599 27588 ft 396 kts 275°
2026-05-05 16:13 39.00724 -78.96269 28828 ft 402 kts 275°
2026-05-05 16:13 39.00936 -78.99863 29258 ft 403 kts 275°
2026-05-05 16:13 39.01143 -79.03395 29790 ft 402 kts 275°
2026-05-05 16:14 39.01558 -79.10532 29949 ft 397 kts 275°
2026-05-05 16:14 39.01976 -79.17604 29958 ft 396 kts 275°
2026-05-05 16:15 39.02904 -79.31682 29943 ft 397 kts 275°
2026-05-05 16:16 39.03813 -79.45815 29969 ft 398 kts 276°
2026-05-05 16:17 39.04485 -79.56445 29949 ft 399 kts 276°
2026-05-05 16:18 39.05149 -79.67114 29984 ft 399 kts 276°
2026-05-05 16:19 39.05805 -79.77791 29994 ft 399 kts 275°
2026-05-05 16:19 39.06448 -79.88430 29995 ft 400 kts 275°
2026-05-05 16:20 39.07295 -80.02679 29973 ft 399 kts 275°
2026-05-05 16:22 39.08329 -80.20510 29938 ft 402 kts 275°
2026-05-05 16:23 39.09130 -80.34841 29927 ft 403 kts 275°
2026-05-05 16:23 39.09711 -80.45620 29934 ft 403 kts 275°
2026-05-05 16:24 39.10091 -80.52768 29923 ft 403 kts 275°
2026-05-05 16:25 39.10659 -80.63601 29913 ft 405 kts 274°
2026-05-05 16:25 39.11217 -80.74456 29913 ft 405 kts 274°
2026-05-05 16:26 39.11944 -80.88884 29912 ft 405 kts 274°
2026-05-05 16:27 39.12302 -80.96136 29914 ft 407 kts 273°
2026-05-05 16:27 39.12659 -81.03422 29910 ft 408 kts 273°
2026-05-05 16:28 39.13593 -81.10524 29884 ft 409 kts 293°
2026-05-05 16:28 39.16186 -81.17073 29890 ft 411 kts 295°
2026-05-05 16:29 39.18829 -81.23607 29897 ft 411 kts 296°
2026-05-05 16:29 39.21494 -81.30125 29913 ft 410 kts 295°
2026-05-05 16:30 39.24150 -81.36621 29914 ft 409 kts 295°
2026-05-05 16:30 39.26779 -81.43065 29946 ft 408 kts 294°
2026-05-05 16:31 39.29402 -81.49505 29916 ft 404 kts 295°
2026-05-05 16:31 39.32016 -81.55937 29916 ft 404 kts 294°
2026-05-05 16:32 39.34624 -81.62366 29890 ft 404 kts 294°
2026-05-05 16:32 39.37210 -81.68754 29885 ft 401 kts 294°
2026-05-05 16:33 39.39787 -81.75132 29882 ft 400 kts 294°
2026-05-05 16:33 39.42355 -81.81509 29875 ft 400 kts 294°
2026-05-05 16:34 39.44921 -81.87890 29872 ft 400 kts 294°
2026-05-05 16:34 39.47465 -81.94232 29877 ft 400 kts 294°
2026-05-05 16:35 39.50022 -82.00619 29872 ft 400 kts 294°
2026-05-05 16:35 39.52577 -82.07014 29867 ft 400 kts 294°
2026-05-05 16:36 39.55125 -82.13406 29877 ft 399 kts 293°
2026-05-05 16:36 39.57650 -82.19753 29871 ft 399 kts 293°
2026-05-05 16:37 39.60187 -82.26144 29866 ft 399 kts 293°
2026-05-05 16:37 39.62719 -82.32536 29865 ft 399 kts 293°
2026-05-05 16:38 39.65248 -82.38934 29864 ft 399 kts 293°
2026-05-05 16:38 39.67733 -82.45234 29865 ft 391 kts 293°
2026-05-05 16:39 39.70203 -82.51508 29892 ft 390 kts 293°
2026-05-05 16:39 39.72667 -82.57781 29899 ft 390 kts 293°
2026-05-05 16:40 39.75129 -82.64062 29898 ft 390 kts 293°
2026-05-05 16:40 39.77587 -82.70344 29893 ft 390 kts 293°
2026-05-05 16:41 39.80025 -82.76589 29898 ft 390 kts 293°
2026-05-05 16:41 39.82465 -82.82852 29907 ft 387 kts 292°
2026-05-05 16:42 39.84891 -82.89094 29900 ft 387 kts 292°
2026-05-05 16:42 39.87297 -82.95297 29897 ft 387 kts 292°
2026-05-05 16:43 39.89717 -83.01547 29899 ft 386 kts 292°
2026-05-05 16:43 39.92133 -83.07797 29899 ft 386 kts 292°
2026-05-05 16:44 39.94544 -83.14047 29895 ft 386 kts 292°
2026-05-05 16:44 39.96951 -83.20306 29896 ft 385 kts 292°
2026-05-05 16:45 39.99330 -83.26506 29890 ft 385 kts 292°
2026-05-05 16:45 40.01724 -83.32755 29883 ft 385 kts 292°
2026-05-05 16:46 40.04115 -83.39008 29877 ft 385 kts 292°
2026-05-05 16:46 40.06502 -83.45264 29890 ft 385 kts 292°
2026-05-05 16:47 40.08865 -83.51472 29855 ft 384 kts 292°
2026-05-05 16:47 40.11239 -83.57720 29856 ft 384 kts 291°
2026-05-05 16:48 40.13607 -83.63968 29858 ft 383 kts 291°
2026-05-05 16:48 40.15970 -83.70214 29858 ft 383 kts 291°
2026-05-05 16:49 40.18330 -83.76466 29865 ft 383 kts 291°
2026-05-05 16:49 40.20668 -83.82672 29870 ft 383 kts 291°
2026-05-05 16:50 40.23020 -83.88930 29863 ft 383 kts 291°
2026-05-05 16:50 40.25372 -83.95201 29873 ft 385 kts 291°
2026-05-05 16:51 40.27731 -84.01502 29872 ft 385 kts 291°
2026-05-05 16:51 40.30694 -84.07358 29879 ft 394 kts 302°
2026-05-05 16:52 40.34109 -84.12975 29892 ft 395 kts 302°
2026-05-05 16:52 40.37549 -84.18601 29869 ft 396 kts 302°
2026-05-05 16:53 40.40997 -84.24239 29877 ft 396 kts 302°
2026-05-05 16:53 40.44417 -84.29841 29879 ft 396 kts 302°
2026-05-05 16:54 40.47865 -84.35500 29884 ft 397 kts 302°
2026-05-05 16:54 40.51312 -84.41166 29856 ft 397 kts 302°
2026-05-05 16:55 40.54759 -84.46843 29856 ft 397 kts 302°
2026-05-05 16:55 40.58201 -84.52522 29857 ft 397 kts 302°
2026-05-05 16:56 40.61619 -84.58173 29858 ft 397 kts 302°
2026-05-05 16:56 40.65056 -84.63865 29861 ft 397 kts 302°
2026-05-05 16:57 40.68490 -84.69563 29858 ft 397 kts 302°
2026-05-05 16:57 40.71920 -84.75264 29860 ft 397 kts 302°
2026-05-05 16:58 40.75324 -84.80933 29859 ft 397 kts 302°
2026-05-05 16:58 40.78751 -84.86650 29866 ft 397 kts 302°
2026-05-05 16:59 40.82170 -84.92366 29869 ft 396 kts 301°
2026-05-05 16:59 40.85585 -84.98084 29865 ft 396 kts 301°
2026-05-05 17:00 40.88975 -85.03771 29877 ft 397 kts 301°
2026-05-05 17:00 40.92371 -85.09478 29879 ft 394 kts 301°
2026-05-05 17:01 40.95754 -85.15172 29879 ft 394 kts 301°
2026-05-05 17:01 40.99306 -85.20724 29877 ft 398 kts 305°
2026-05-05 17:02 41.03046 -85.26116 29868 ft 397 kts 304°
2026-05-05 17:02 41.06739 -85.31502 29868 ft 398 kts 304°
2026-05-05 17:03 41.10454 -85.36936 29862 ft 398 kts 304°
2026-05-05 17:03 41.14162 -85.42371 29859 ft 398 kts 304°
2026-05-05 17:04 41.17597 -85.47964 29856 ft 378 kts 288°
2026-05-05 17:04 41.19350 -85.54386 29872 ft 372 kts 282°
2026-05-05 17:05 41.20984 -85.60907 29891 ft 372 kts 282°
2026-05-05 17:05 41.22570 -85.67448 29896 ft 372 kts 282°
2026-05-05 17:06 41.24138 -85.73992 29907 ft 372 kts 281°
2026-05-05 17:06 41.25689 -85.80489 29909 ft 372 kts 281°
2026-05-05 17:07 41.27017 -85.87075 29900 ft 363 kts 271°
2026-05-05 17:07 41.27552 -85.93774 29899 ft 365 kts 272°
2026-05-05 17:08 41.28096 -86.00438 29925 ft 359 kts 272°
2026-05-05 17:08 41.28788 -86.06902 29912 ft 339 kts 274°
2026-05-05 17:09 41.29147 -86.09901 29749 ft 328 kts 274°
2026-05-05 17:09 41.29496 -86.12872 29336 ft 323 kts 274°
2026-05-05 17:09 41.29838 -86.15797 28986 ft 317 kts 274°
2026-05-05 17:09 41.30172 -86.18668 28632 ft 317 kts 274°
2026-05-05 17:10 41.30513 -86.21603 28241 ft 324 kts 274°
2026-05-05 17:10 41.30859 -86.24588 27862 ft 328 kts 274°
2026-05-05 17:10 41.31205 -86.27585 27480 ft 328 kts 274°
2026-05-05 17:10 41.31550 -86.30581 27107 ft 327 kts 274°
2026-05-05 17:11 41.31893 -86.33567 26736 ft 326 kts 274°
2026-05-05 17:11 41.32234 -86.36538 26358 ft 324 kts 274°
2026-05-05 17:11 41.32568 -86.39460 26001 ft 323 kts 275°
2026-05-05 17:11 41.32905 -86.42409 25637 ft 322 kts 275°
2026-05-05 17:12 41.33240 -86.45349 25276 ft 321 kts 275°
2026-05-05 17:12 41.33460 -86.47285 25043 ft 320 kts 275°
2026-05-05 17:12 41.33792 -86.50209 24693 ft 319 kts 275°
2026-05-05 17:12 41.34324 -86.54083 24194 ft 321 kts 284°
2026-05-05 17:13 41.35291 -86.56783 23833 ft 323 kts 290°
2026-05-05 17:13 41.36264 -86.59410 23509 ft 319 kts 290°
2026-05-05 17:13 41.37250 -86.62039 23116 ft 316 kts 290°
2026-05-05 17:13 41.38235 -86.64640 22748 ft 313 kts 290°
2026-05-05 17:14 41.39242 -86.67190 22387 ft 312 kts 296°
2026-05-05 17:14 41.40739 -86.69347 21963 ft 326 kts 315°
2026-05-05 17:14 41.42722 -86.70887 21627 ft 331 kts 323°
2026-05-05 17:14 41.44787 -86.72313 21259 ft 338 kts 323°
2026-05-05 17:15 41.46896 -86.73737 20880 ft 343 kts 324°
2026-05-05 17:15 41.49036 -86.75161 20518 ft 344 kts 324°
2026-05-05 17:15 41.51150 -86.76556 20160 ft 343 kts 325°
2026-05-05 17:15 41.53342 -86.77839 19758 ft 353 kts 336°
2026-05-05 17:16 41.55828 -86.78300 19360 ft 363 kts 347°
2026-05-05 17:16 41.58337 -86.78574 18972 ft 361 kts 347°
2026-05-05 17:16 41.60836 -86.78838 18585 ft 360 kts 348°
2026-05-05 17:16 41.63333 -86.79092 18195 ft 359 kts 348°
2026-05-05 17:17 41.65818 -86.79361 17741 ft 358 kts 347°
2026-05-05 17:17 41.68294 -86.79683 17330 ft 356 kts 347°
2026-05-05 17:17 41.70755 -86.79997 16946 ft 354 kts 347°
2026-05-05 17:17 41.73163 -86.80301 16593 ft 351 kts 347°
2026-05-05 17:18 41.75590 -86.80608 16199 ft 350 kts 347°
2026-05-05 17:18 41.77988 -86.80994 15775 ft 345 kts 342°
2026-05-05 17:18 41.80351 -86.81538 15381 ft 343 kts 342°
2026-05-05 17:18 41.82699 -86.82063 15041 ft 340 kts 342°
2026-05-05 17:19 41.85016 -86.82584 14746 ft 334 kts 340°
2026-05-05 17:19 41.87084 -86.83719 14365 ft 313 kts 317°
2026-05-05 17:19 41.88759 -86.85515 14062 ft 306 kts 314°
2026-05-05 17:19 41.90376 -86.87280 13758 ft 302 kts 313°
2026-05-05 17:20 41.91992 -86.89067 13397 ft 300 kts 313°
2026-05-05 17:20 41.93529 -86.90917 13014 ft 291 kts 302°
2026-05-05 17:20 41.94422 -86.93252 12624 ft 277 kts 280°
2026-05-05 17:20 41.94792 -86.95750 12401 ft 270 kts 277°
2026-05-05 17:21 41.95122 -86.98212 12098 ft 266 kts 276°
2026-05-05 17:21 41.95422 -87.00641 11799 ft 262 kts 275°
2026-05-05 17:21 41.95707 -87.03043 11510 ft 259 kts 275°
2026-05-05 17:22 41.96246 -87.07780 10943 ft 262 kts 275°
2026-05-05 17:22 41.96516 -87.10222 10658 ft 266 kts 274°
2026-05-05 17:22 41.96784 -87.12661 10493 ft 260 kts 274°
2026-05-05 17:22 41.97043 -87.15026 10367 ft 251 kts 274°
2026-05-05 17:23 41.97291 -87.17304 10248 ft 242 kts 274°
2026-05-05 17:23 41.97529 -87.19504 10117 ft 233 kts 274°
2026-05-05 17:23 41.97760 -87.21632 9920 ft 228 kts 274°
2026-05-05 17:23 41.97986 -87.23725 9657 ft 226 kts 274°
2026-05-05 17:24 41.98215 -87.25842 9378 ft 232 kts 274°
2026-05-05 17:24 41.98446 -87.27981 9123 ft 237 kts 274°
2026-05-05 17:24 41.98664 -87.30175 9022 ft 236 kts 270°
2026-05-05 17:24 41.98690 -87.32383 9026 ft 237 kts 268°
2026-05-05 17:25 41.98709 -87.34601 9023 ft 238 kts 268°
2026-05-05 17:25 41.98725 -87.36074 9027 ft 239 kts 268°
2026-05-05 17:25 41.98734 -87.39057 9020 ft 239 kts 267°
2026-05-05 17:25 41.98738 -87.41287 9014 ft 239 kts 267°
2026-05-05 17:26 41.98744 -87.43516 9013 ft 238 kts 267°
2026-05-05 17:26 41.98750 -87.45741 9012 ft 238 kts 267°
2026-05-05 17:26 41.98758 -87.47940 9012 ft 238 kts 268°
2026-05-05 17:26 41.98765 -87.50164 9086 ft 238 kts 267°
2026-05-05 17:27 41.98773 -87.52394 9029 ft 238 kts 268°
2026-05-05 17:27 41.98783 -87.54615 9004 ft 238 kts 268°
2026-05-05 17:27 41.98804 -87.56840 9005 ft 238 kts 268°
2026-05-05 17:27 41.98814 -87.59053 8905 ft 234 kts 268°
2026-05-05 17:28 41.98819 -87.61248 8436 ft 236 kts 268°
2026-05-05 17:28 41.98822 -87.63464 7956 ft 238 kts 268°
2026-05-05 17:28 41.98821 -87.65674 7496 ft 231 kts 269°
2026-05-05 17:28 41.98823 -87.67727 7043 ft 208 kts 269°
2026-05-05 17:29 41.98824 -87.69534 6605 ft 186 kts 270°
2026-05-05 17:29 41.98823 -87.71194 6202 ft 171 kts 271°
2026-05-05 17:29 41.98824 -87.72782 5760 ft 166 kts 271°
2026-05-05 17:29 41.98825 -87.74284 5355 ft 156 kts 271°
2026-05-05 17:30 41.98825 -87.75232 5081 ft 150 kts 271°
2026-05-05 17:30 41.98828 -87.77077 4639 ft 148 kts 272°
2026-05-05 17:30 41.98833 -87.78471 4289 ft 149 kts 271°
2026-05-05 17:30 41.98826 -87.79891 3633 ft 157 kts 272°
2026-05-05 17:31 41.98811 -87.81373 3058 ft 159 kts 272°
2026-05-05 17:31 41.98803 -87.82809 2575 ft 155 kts 272°
2026-05-05 17:31 41.98814 -87.84283 1955 ft 159 kts 273°
2026-05-05 17:31 41.98833 -87.85798 1284 ft 164 kts 272°
2026-05-05 17:32 41.98831 -87.87227 1067 ft 145 kts 270°
2026-05-05 17:32 41.98816 -87.88527 781 ft 130 kts 272°
2026-05-05 17:32 41.98826 -87.89328 672 ft 0 kts 272°